< < Back
Terminal Aerodrome Forecast


Current Version              Previous Versions:   1  2  3  4  5  6  7  8  9  

Terminal Aerodrome Forecast

242
FTUS42 KTAE 021120
TAFVLD
TAF
KVLD 021120Z 0212/0312 13004KT 5SM SHRA BR BKN004
     FM021400 15005KT P6SM VCSH BKN025
     FM021600 20005KT P6SM VCTS BKN050CB
     FM030000 00000KT P6SM BKN250=

Latest METAR

851
SAUS70 KWBC 031700 RRJ
MTRVLD
METAR KVLD 031653Z VRB04KT 10SM SCT042 32/23 A2998 RMK AO2 SLP156
T03220233


USA.gov is the U.S. government's official web portal to all federal, state and local government web resources and services.